N1CTF Weather Reports


time (UTC)temp
C
wind
direction
speed
KPH
gust
KPH
rain 1hr
cm
rain 24hr
cm
rain mn
cm
humidity
%
barometer
mb
20260903043027 27 243 3.2 4.8 0.00 0.00 0.00 71 1013.6
20260903042028 27 13 0.0 3.2 0.00 0.00 0.00 71 1013.4
20260903041027 27 207 1.6 1.6 0.00 0.00 0.00 71 1013.5
20260903040028 27 354 3.2 3.2 0.00 0.00 0.00 71 1013.6
20260903035027 27 332 0.0 3.2 0.00 0.00 0.00 72 1013.9
20260903034027 26 344 1.6 3.2 0.00 0.00 0.00 74 1014.0
20260903033028 26 354 0.0 0.0 0.00 0.00 0.00 74 1014.1
20260903032028 27 64 0.0 1.6 0.00 0.00 0.00 73 1014.1
20260903031028 27 5 0.0 0.0 0.00 0.00 0.00 72 1013.8
20260903030027 27 57 0.0 3.2 0.00 0.00 0.00 73 1014.2
20260903025027 27 36 0.0 1.6 0.00 0.00 0.00 73 1014.5
20260903024028 27 37 0.0 1.6 0.00 0.00 0.00 73 1014.2
20260903023028 27 135 0.0 0.0 0.00 0.00 0.00 73 1014.1
20260903022027 27 16 1.6 3.2 0.00 0.00 0.00 72 1014.2
20260903021028 27 220 3.2 3.2 0.00 0.00 0.00 72 1014.3
20260903020029 27 258 3.2 3.2 0.00 0.00 0.00 72 1014.4
20260903015028 28 40 0.0 0.0 0.00 0.00 0.00 70 1014.1
20260903014027 28 318 1.6 3.2 0.00 0.00 0.00 69 1014.0
20260903013028 28 31 1.6 1.6 0.00 0.00 0.00 69 1014.2
20260903012027 28 25 1.6 1.6 0.00 0.00 0.00 69 1014.1
20260903011028 28 32 3.2 3.2 0.00 0.00 0.00 67 1013.9
20260903010027 28 333 0.0 0.0 0.00 0.00 0.00 66 1014.1
20260903005028 29 38 0.0 0.0 0.00 0.00 0.00 65 1013.9
20260903004029 29 265 1.6 1.6 0.00 0.00 0.00 64 1013.7
20260903003028 29 40 1.6 1.6 0.00 0.00 0.00 62 1013.4
20260903002028 30 275 0.0 3.2 0.00 0.00 0.00 62 1013.3
20260903001028 30 210 0.0 1.6 0.00 0.00 0.00 61 1013.5
20260903000027 30 319 0.0 1.6 0.00 0.00 0.00 60 1013.5
20260902235028 30 13 3.2 3.2 0.00 0.00 0.00 59 1013.3
20260902234028 30 220 0.0 3.2 0.00 0.00 0.00 57 1013.2
20260902233028 31 306 0.0 3.2 0.00 0.00 0.00 56 1013.3
20260902232027 31 269 1.6 3.2 0.00 0.00 0.00 55 1013.4
20260902231027 31 89 0.0 3.2 0.00 0.00 0.00 54 1013.1
20260902230027 31 299 0.0 3.2 0.00 0.00 0.00 52 1013.1
20260902225027 31 290 1.6 3.2 0.00 0.00 0.00 53 1013.0
20260902224027 32 310 3.2 8.0 0.00 0.00 0.00 50 1013.3
20260902223028 32 54 3.2 4.8 0.00 0.00 0.00 50 1013.0
20260902222029 32 13 4.8 11.3 0.00 0.00 0.00 49 1013.3
20260902221028 32 46 1.6 1.6 0.00 0.00 0.00 49 1013.2
20260902220028 32 262 4.8 9.7 0.00 0.00 0.00 48 1013.1
20260902215027 32 27 1.6 4.8 0.00 0.00 0.00 50 1013.2
20260902214028 32 221 1.6 3.2 0.00 0.00 0.00 50 1013.1
20260902213028 33 227 4.8 6.4 0.00 0.00 0.00 49 1013.2
20260902212028 33 15 3.2 4.8 0.00 0.00 0.00 49 1013.4
20260902211027 33 34 9.7 9.7 0.00 0.00 0.00 50 1013.2
20260902210027 33 275 3.2 6.4 0.00 0.00 0.00 49 1013.1
20260902205027 33 323 3.2 8.0 0.00 0.00 0.00 47 1013.2
20260902204028 33 247 1.6 8.0 0.00 0.00 0.00 45 1013.4
20260902203028 34 30 4.8 6.4 0.00 0.00 0.00 44 1013.4
20260902202028 34 296 8.0 8.0 0.00 0.00 0.00 46 1013.6
20260902201028 33 292 3.2 4.8 0.00 0.00 0.00 44 1013.4
20260902200029 34 83 8.0 8.0 0.00 0.00 0.00 45 1013.8
20260902195027 33 266 3.2 6.4 0.00 0.00 0.00 48 1014.0
20260902194028 33 12 4.8 9.7 0.00 0.00 0.00 48 1014.0
20260902193028 33 14 3.2 6.4 0.00 0.00 0.00 47 1014.0
20260902192028 33 297 1.6 4.8 0.00 0.00 0.00 48 1014.0
20260902191027 34 231 1.6 3.2 0.00 0.00 0.00 49 1014.1
20260902190028 34 218 8.0 8.0 0.00 0.00 0.00 46 1014.3
20260902185028 35 300 3.2 8.0 0.00 0.00 0.00 45 1014.4
20260902184027 33 212 6.4 6.4 0.00 0.00 0.00 48 1014.4
20260902183028 33 3 4.8 8.0 0.00 0.00 0.00 50 1014.2
20260902182027 33 218 1.6 3.2 0.00 0.00 0.00 48 1014.7
20260902181028 34 226 6.4 11.3 0.00 0.00 0.00 48 1014.6
20260902180027 33 351 4.8 4.8 0.00 0.00 0.00 50 1015.2
20260902175028 33 34 3.2 3.2 0.00 0.00 0.00 48 1015.0
20260902174028 32 13 1.6 1.6 0.00 0.00 0.00 49 1015.2
20260902173028 33 251 6.4 6.4 0.00 0.00 0.00 51 1015.2
20260902172028 32 264 3.2 6.4 0.00 0.00 0.00 51 1015.4
20260902171028 33 22 8.0 8.0 0.00 0.00 0.00 50 1015.6
20260902170029 32 222 0.0 3.2 0.00 0.00 0.00 51 1015.5
20260902165028 32 249 6.4 8.0 0.00 0.00 0.00 52 1015.6
20260902164027 32 1 1.6 4.8 0.00 0.00 0.00 53 1015.5
20260902163028 33 7 4.8 6.4 0.00 0.00 0.00 52 1015.6
20260902162028 32 73 3.2 4.8 0.00 0.00 0.00 53 1015.5
20260902161028 32 23 4.8 4.8 0.00 0.00 0.00 54 1015.5
20260902160027 31 326 0.0 4.8 0.00 0.00 0.00 56 1016.0
20260902155027 31 201 3.2 4.8 0.00 0.00 0.00 56 1016.1
20260902154028 31 268 0.0 3.2 0.00 0.00 0.00 56 1016.1
20260902153027 31 265 3.2 4.8 0.00 0.00 0.00 59 1016.1
20260902152028 30 330 3.2 3.2 0.00 0.00 0.00 60 1016.1
20260902151027 30 265 3.2 6.4 0.00 0.00 0.00 60 1016.3
20260902150027 29 36 3.2 3.2 0.00 0.00 0.00 64 1016.3
20260902145027 28 258 0.0 1.6 0.00 0.00 0.00 65 1016.5
20260902144028 29 243 3.2 3.2 0.00 0.00 0.00 65 1016.4
20260902143028 28 326 0.0 3.2 0.00 0.00 0.00 68 1016.3
20260902142028 27 66 3.2 3.2 0.00 0.00 0.00 68 1016.6
20260902141027 27 278 4.8 4.8 0.00 0.00 0.00 68 1016.7
20260902140028 27 300 3.2 4.8 0.00 0.00 0.00 68 1016.5
20260902135028 27 92 3.2 4.8 0.00 0.00 0.00 69 1016.4
20260902134027 27 19 8.0 9.7 0.00 0.00 0.00 70 1016.3
20260902133027 26 70 3.2 4.8 0.00 0.00 0.00 71 1016.5
20260902132028 26 354 0.0 4.8 0.00 0.00 0.00 73 1016.3
20260902131028 25 58 4.8 4.8 0.00 0.00 0.00 77 1016.6
20260902130027 25 86 0.0 1.6 0.00 0.00 0.00 80 1016.5
20260902125028 25 280 0.0 3.2 0.00 0.00 0.00 82 1016.7
20260902124028 23 57 0.0 3.2 0.00 0.00 0.00 85 1016.6
20260902123028 23 276 0.0 1.6 0.00 0.00 0.00 89 1016.6
20260902122027 22 13 3.2 4.8 0.00 0.00 0.00 92 1016.5
20260902121028 21 12 0.0 3.2 0.00 0.00 0.00 94 1016.9
20260902120029 21 20 1.6 3.2 0.00 0.00 0.00 95 1016.7
20260902115027 21 3 1.6 3.2 0.00 0.00 0.00 95 1016.8
20260902114028 21 69 3.2 3.2 0.00 0.00 0.00 95 1016.5
20260902113027 21 7 1.6 1.6 0.00 0.00 0.00 94 1016.8
20260902112029 21 64 3.2 4.8 0.00 0.00 0.00 95 1016.5
20260902111028 21 14 1.6 4.8 0.00 0.00 0.00 94 1016.6
20260902110028 21 58 1.6 4.8 0.00 0.00 0.00 94 1016.6
20260902105028 21 50 1.6 3.2 0.00 0.00 0.00 94 1016.2
20260902104028 21 56 1.6 3.2 0.00 0.00 0.00 94 1016.3
20260902103027 21 34 4.8 4.8 0.00 0.00 0.00 94 1016.3
20260902102027 21 42 1.6 3.2 0.00 0.00 0.00 93 1016.3
20260902101027 21 76 1.6 1.6 0.00 0.00 0.00 92 1016.4
20260902100027 21 29 3.2 6.4 0.00 0.00 0.00 92 1016.5
20260902095027 21 1 3.2 4.8 0.00 0.00 0.00 92 1016.4
20260902094027 21 21 1.6 3.2 0.00 0.00 0.00 91 1016.2
20260902093027 22 100 0.0 3.2 0.00 0.00 0.00 91 1016.3
20260902092027 22 45 1.6 4.8 0.00 0.00 0.00 90 1016.3
20260902091027 22 94 1.6 3.2 0.00 0.00 0.00 90 1016.0
20260902090027 22 114 0.0 3.2 0.00 0.00 0.00 90 1016.2
20260902085027 22 360 1.6 3.2 0.00 0.00 0.00 89 1016.4
20260902084027 22 69 1.6 4.8 0.00 0.00 0.00 88 1016.1
20260902083027 22 86 4.8 6.4 0.00 0.00 0.00 87 1016.0
20260902082028 23 80 3.2 6.4 0.00 0.00 0.00 86 1016.0
20260902081027 23 98 4.8 4.8 0.00 0.00 0.00 85 1015.7
20260902080027 23 170 3.2 4.8 0.00 0.00 0.00 84 1015.8
20260902075028 24 135 4.8 4.8 0.00 0.00 0.00 82 1015.7
20260902074027 24 10 3.2 4.8 0.00 0.00 0.00 81 1015.5
20260902073027 25 335 3.2 6.4 0.00 0.00 0.00 80 1015.6
20260902072027 25 54 3.2 6.4 0.00 0.00 0.00 80 1015.5
20260902071028 25 178 3.2 3.2 0.00 0.00 0.00 79 1015.4
20260902070027 25 54 0.0 1.6 0.00 0.00 0.00 79 1015.4
20260902065027 25 115 1.6 3.2 0.00 0.00 0.00 79 1015.2
20260902064027 25 17 0.0 0.0 0.00 0.00 0.00 79 1015.4
20260902063028 25 37 0.0 0.0 0.00 0.00 0.00 78 1015.5
20260902062028 25 22 1.6 1.6 0.00 0.00 0.00 78 1015.3
20260902061027 25 303 1.6 1.6 0.00 0.00 0.00 79 1015.5
20260902060027 25 46 1.6 3.2 0.00 0.00 0.00 79 1015.4
20260902055027 25 44 0.0 0.0 0.00 0.00 0.00 79 1015.4
20260902054028 25 40 0.0 0.0 0.00 0.00 0.00 79 1015.4
20260902053027 25 43 1.6 1.6 0.00 0.00 0.00 78 1015.2
20260902052028 25 94 1.6 1.6 0.00 0.00 0.00 77 1015.3
20260902051027 25 65 1.6 1.6 0.00 0.00 0.00 77 1015.2
20260902050028 25 27 0.0 0.0 0.00 0.00 0.00 76 1015.4
20260902045027 25 64 1.6 1.6 0.00 0.00 0.00 77 1015.0
20260902044028 26 43 0.0 1.6 0.00 0.00 0.00 75 1015.0